Year,Month,Day,Hour,Minute,Value (Times are PST for temperature in C)
2020,02,03,00,00,2.20
2020,02,03,00,01,2.20
2020,02,03,00,02,2.20
2020,02,03,00,03,2.20
2020,02,03,00,04,2.20
2020,02,03,00,05,2.20
2020,02,03,00,06,2.20
2020,02,03,00,07,2.20
2020,02,03,00,08,2.20
2020,02,03,00,09,2.20
2020,02,03,00,10,2.20
2020,02,03,00,11,2.20
2020,02,03,00,12,2.10
2020,02,03,00,13,2.10
2020,02,03,00,14,2.10
2020,02,03,00,15,2.10
2020,02,03,00,16,2.00
2020,02,03,00,17,2.00
2020,02,03,00,18,2.00
2020,02,03,00,19,2.00
2020,02,03,00,20,2.00
2020,02,03,00,21,1.90
2020,02,03,00,22,1.90
2020,02,03,00,23,1.90
2020,02,03,00,24,1.90
2020,02,03,00,25,1.90
2020,02,03,00,26,1.90
2020,02,03,00,27,1.90
2020,02,03,00,28,1.90
2020,02,03,00,29,1.80
2020,02,03,00,30,1.80
2020,02,03,00,31,1.80
2020,02,03,00,32,1.80
2020,02,03,00,33,1.80
2020,02,03,00,34,1.80
2020,02,03,00,35,1.80
2020,02,03,00,36,1.80
2020,02,03,00,37,1.80
2020,02,03,00,38,1.70
2020,02,03,00,39,1.70
2020,02,03,00,40,1.70
2020,02,03,00,41,1.70
2020,02,03,00,42,1.70
2020,02,03,00,43,1.70
2020,02,03,00,44,1.70
2020,02,03,00,45,1.70
2020,02,03,00,46,1.70
2020,02,03,00,47,1.70
2020,02,03,00,48,1.70
2020,02,03,00,49,1.70
2020,02,03,00,50,1.70
2020,02,03,00,51,1.70
2020,02,03,00,52,1.70
2020,02,03,00,53,1.70
2020,02,03,00,54,1.70
2020,02,03,00,55,1.70
2020,02,03,00,56,1.70
2020,02,03,00,57,1.70
2020,02,03,00,58,1.70
2020,02,03,00,59,1.70
2020,02,03,01,00,1.70
2020,02,03,01,01,1.70
2020,02,03,01,02,1.70
2020,02,03,01,03,1.70
2020,02,03,01,04,1.70
2020,02,03,01,05,1.70
2020,02,03,01,06,1.70
2020,02,03,01,07,1.70
2020,02,03,01,08,1.70
2020,02,03,01,09,1.70
2020,02,03,01,10,1.70
2020,02,03,01,11,1.70
2020,02,03,01,12,1.70
2020,02,03,01,13,1.60
2020,02,03,01,14,1.60
2020,02,03,01,15,1.60
2020,02,03,01,16,1.60
2020,02,03,01,17,1.60
2020,02,03,01,18,1.60
2020,02,03,01,19,1.50
2020,02,03,01,20,1.50
2020,02,03,01,21,1.60
2020,02,03,01,22,1.60
2020,02,03,01,23,1.60
2020,02,03,01,24,1.60
2020,02,03,01,25,1.60
2020,02,03,01,26,1.60
2020,02,03,01,27,1.70
2020,02,03,01,28,1.70
2020,02,03,01,29,1.70
2020,02,03,01,30,1.70
2020,02,03,01,31,1.70
2020,02,03,01,32,1.70
2020,02,03,01,33,1.70
2020,02,03,01,34,1.70
2020,02,03,01,35,1.70
2020,02,03,01,36,1.70
2020,02,03,01,37,1.70
2020,02,03,01,38,1.70
2020,02,03,01,39,1.70
2020,02,03,01,40,1.70
2020,02,03,01,41,1.70
2020,02,03,01,42,1.70
2020,02,03,01,43,1.80
2020,02,03,01,44,1.80
2020,02,03,01,45,1.80
2020,02,03,01,46,1.80
2020,02,03,01,47,1.80
2020,02,03,01,48,1.90
2020,02,03,01,49,1.90
2020,02,03,01,50,2.00
2020,02,03,01,51,2.00
2020,02,03,01,52,2.00
2020,02,03,01,53,2.00
2020,02,03,01,54,2.00
2020,02,03,01,55,2.10
2020,02,03,01,56,2.10
2020,02,03,01,57,2.10
2020,02,03,01,58,2.10
2020,02,03,01,59,2.10
2020,02,03,02,00,2.10
2020,02,03,02,01,2.10
2020,02,03,02,02,2.10
2020,02,03,02,03,2.20
2020,02,03,02,04,2.20
2020,02,03,02,05,2.20
2020,02,03,02,06,2.20
2020,02,03,02,07,2.20
2020,02,03,02,08,2.20
2020,02,03,02,09,2.20
2020,02,03,02,10,2.10
2020,02,03,02,11,2.10
2020,02,03,02,12,2.10
2020,02,03,02,13,2.10
2020,02,03,02,14,2.10
2020,02,03,02,15,2.10
2020,02,03,02,16,2.10
2020,02,03,02,17,2.10
2020,02,03,02,18,2.10
2020,02,03,02,19,2.00
2020,02,03,02,20,2.00
2020,02,03,02,21,2.00
2020,02,03,02,22,2.00
2020,02,03,02,23,1.90
2020,02,03,02,24,1.90
2020,02,03,02,25,1.90
2020,02,03,02,26,1.90
2020,02,03,02,27,1.90
2020,02,03,02,28,1.90
2020,02,03,02,29,1.90
2020,02,03,02,30,1.80
2020,02,03,02,31,1.80
2020,02,03,02,32,1.80
2020,02,03,02,33,1.80
2020,02,03,02,34,1.80
2020,02,03,02,35,1.80
2020,02,03,02,36,1.80
2020,02,03,02,37,1.80
2020,02,03,02,38,1.80
2020,02,03,02,39,1.80
2020,02,03,02,40,1.80
2020,02,03,02,41,1.80
2020,02,03,02,42,1.80
2020,02,03,02,43,1.80
2020,02,03,02,44,1.80
2020,02,03,02,45,1.80
2020,02,03,02,46,1.80
2020,02,03,02,47,1.80
2020,02,03,02,48,1.80
2020,02,03,02,49,1.90
2020,02,03,02,50,1.90
2020,02,03,02,51,1.90
2020,02,03,02,52,2.00
2020,02,03,02,53,2.00
2020,02,03,02,54,2.00
2020,02,03,02,55,2.10
2020,02,03,02,56,2.10
2020,02,03,02,57,2.20
2020,02,03,02,58,2.20
2020,02,03,02,59,2.30
2020,02,03,03,00,2.30
2020,02,03,03,01,2.30
2020,02,03,03,02,2.30
2020,02,03,03,03,2.30
2020,02,03,03,04,2.30
2020,02,03,03,05,2.30
2020,02,03,03,06,2.30
2020,02,03,03,07,2.30
2020,02,03,03,08,2.30
2020,02,03,03,09,2.30
2020,02,03,03,10,2.30
2020,02,03,03,11,2.30
2020,02,03,03,12,2.30
2020,02,03,03,13,2.30
2020,02,03,03,14,2.30
2020,02,03,03,15,2.30
2020,02,03,03,16,2.30
2020,02,03,03,17,2.30
2020,02,03,03,18,2.30
2020,02,03,03,19,2.30
2020,02,03,03,20,2.30
2020,02,03,03,21,2.20
2020,02,03,03,22,2.20
2020,02,03,03,23,2.20
2020,02,03,03,24,2.20
2020,02,03,03,25,2.20
2020,02,03,03,26,2.20
2020,02,03,03,27,2.20
2020,02,03,03,28,2.20
2020,02,03,03,29,2.20
2020,02,03,03,30,2.10
2020,02,03,03,31,2.10
2020,02,03,03,32,2.10
2020,02,03,03,33,2.10
2020,02,03,03,34,2.10
2020,02,03,03,35,2.00
2020,02,03,03,36,2.10
2020,02,03,03,37,2.00
2020,02,03,03,38,2.10
2020,02,03,03,39,2.10
2020,02,03,03,40,2.00
2020,02,03,03,41,2.00
2020,02,03,03,42,2.10
2020,02,03,03,43,2.10
2020,02,03,03,44,2.10
2020,02,03,03,45,2.10
2020,02,03,03,46,2.10
2020,02,03,03,47,2.00
2020,02,03,03,48,2.00
2020,02,03,03,49,2.00
2020,02,03,03,50,2.00
2020,02,03,03,51,1.90
2020,02,03,03,52,1.90
2020,02,03,03,53,1.90
2020,02,03,03,54,1.90
2020,02,03,03,55,1.90
2020,02,03,03,56,1.90
2020,02,03,03,57,1.90
2020,02,03,03,58,1.90
2020,02,03,03,59,1.90
2020,02,03,04,00,1.90
2020,02,03,04,01,1.90
2020,02,03,04,02,1.90
2020,02,03,04,03,1.90
2020,02,03,04,04,1.90
2020,02,03,04,05,1.90
2020,02,03,04,06,1.90
2020,02,03,04,07,1.90
2020,02,03,04,08,1.90
2020,02,03,04,09,1.90
2020,02,03,04,10,1.90
2020,02,03,04,11,1.90
2020,02,03,04,12,1.90
2020,02,03,04,13,1.90
2020,02,03,04,14,1.90
2020,02,03,04,15,1.90
2020,02,03,04,16,1.90
2020,02,03,04,17,1.90
2020,02,03,04,18,1.90
2020,02,03,04,19,1.90
2020,02,03,04,20,1.90
2020,02,03,04,21,1.90
2020,02,03,04,22,1.90
2020,02,03,04,23,1.90
2020,02,03,04,24,1.90
2020,02,03,04,25,1.90
2020,02,03,04,26,1.90
2020,02,03,04,27,1.90
2020,02,03,04,28,1.90
2020,02,03,04,29,1.90
2020,02,03,04,30,1.90
2020,02,03,04,31,1.90
2020,02,03,04,32,1.90
2020,02,03,04,33,1.90
2020,02,03,04,34,1.90
2020,02,03,04,35,1.90
2020,02,03,04,36,1.90
2020,02,03,04,37,1.90
2020,02,03,04,38,1.90
2020,02,03,04,39,1.90
2020,02,03,04,40,1.90
2020,02,03,04,41,1.90
2020,02,03,04,42,1.90
2020,02,03,04,43,1.90
2020,02,03,04,44,1.90
2020,02,03,04,45,1.90
2020,02,03,04,46,1.90
2020,02,03,04,47,1.90
2020,02,03,04,48,1.90
2020,02,03,04,49,1.90
2020,02,03,04,50,1.90
2020,02,03,04,51,1.90
2020,02,03,04,52,1.90
2020,02,03,04,53,1.80
2020,02,03,04,54,1.80
2020,02,03,04,55,1.80
2020,02,03,04,56,1.80
2020,02,03,04,57,1.80
2020,02,03,04,58,1.80
2020,02,03,04,59,1.80
2020,02,03,05,00,1.80
2020,02,03,05,01,1.80
2020,02,03,05,02,1.80
2020,02,03,05,03,1.80
2020,02,03,05,04,1.70
2020,02,03,05,05,1.70
2020,02,03,05,06,1.70
2020,02,03,05,07,1.70
2020,02,03,05,08,1.70
2020,02,03,05,09,1.70
2020,02,03,05,10,1.70
2020,02,03,05,11,1.60
2020,02,03,05,12,1.60
2020,02,03,05,13,1.60
2020,02,03,05,14,1.60
2020,02,03,05,15,1.60
2020,02,03,05,16,1.60
2020,02,03,05,17,1.50
2020,02,03,05,18,1.50
2020,02,03,05,19,1.50
2020,02,03,05,20,1.50
2020,02,03,05,21,1.40
2020,02,03,05,22,1.40
2020,02,03,05,23,1.40
2020,02,03,05,24,1.30
2020,02,03,05,25,1.30
2020,02,03,05,26,1.30
2020,02,03,05,27,1.30
2020,02,03,05,28,1.30
2020,02,03,05,29,1.30
2020,02,03,05,30,1.20
2020,02,03,05,31,1.20
2020,02,03,05,32,1.20
2020,02,03,05,33,1.20
2020,02,03,05,34,1.20
2020,02,03,05,35,1.10
2020,02,03,05,36,1.10
2020,02,03,05,37,1.10
2020,02,03,05,38,1.10
2020,02,03,05,39,1.10
2020,02,03,05,40,1.10
2020,02,03,05,41,1.10
2020,02,03,05,42,1.10
2020,02,03,05,43,1.10
2020,02,03,05,44,1.10
2020,02,03,05,45,1.10
2020,02,03,05,46,1.10
2020,02,03,05,47,1.20
2020,02,03,05,48,1.20
2020,02,03,05,49,1.30
2020,02,03,05,50,1.30
2020,02,03,05,51,1.40
2020,02,03,05,52,1.40
2020,02,03,05,53,1.50
2020,02,03,05,54,1.50
2020,02,03,05,55,1.50
2020,02,03,05,56,1.60
2020,02,03,05,57,1.60
2020,02,03,05,58,1.60
2020,02,03,05,59,1.70
2020,02,03,06,00,1.80
2020,02,03,06,01,1.80
2020,02,03,06,02,1.80
2020,02,03,06,03,1.80
2020,02,03,06,04,1.90
2020,02,03,06,05,1.90
2020,02,03,06,06,1.90
2020,02,03,06,07,1.90
2020,02,03,06,08,1.90
2020,02,03,06,09,2.00
2020,02,03,06,10,2.00
2020,02,03,06,11,2.00
2020,02,03,06,12,2.00
2020,02,03,06,13,2.10
2020,02,03,06,14,2.10
2020,02,03,06,15,2.10
2020,02,03,06,16,2.20
2020,02,03,06,17,2.20
2020,02,03,06,18,2.20
2020,02,03,06,19,2.20
2020,02,03,06,20,2.30
2020,02,03,06,21,2.30
2020,02,03,06,22,2.30
2020,02,03,06,23,2.30
2020,02,03,06,24,2.30
2020,02,03,06,25,2.40
2020,02,03,06,26,2.40
2020,02,03,06,27,2.40
2020,02,03,06,28,2.50
2020,02,03,06,29,2.50
2020,02,03,06,30,2.50
2020,02,03,06,31,2.50
2020,02,03,06,32,2.50
2020,02,03,06,33,2.50
2020,02,03,06,34,2.50
2020,02,03,06,35,2.60
2020,02,03,06,36,2.50
2020,02,03,06,37,2.60
2020,02,03,06,38,2.60
2020,02,03,06,39,2.60
2020,02,03,06,40,2.60
2020,02,03,06,41,2.50
2020,02,03,06,42,2.50
2020,02,03,06,43,2.50
2020,02,03,06,44,2.50
2020,02,03,06,45,2.50
2020,02,03,06,46,2.50
2020,02,03,06,47,2.50
2020,02,03,06,48,2.50
2020,02,03,06,49,2.50
2020,02,03,06,50,2.50
2020,02,03,06,51,2.50
2020,02,03,06,52,2.50
2020,02,03,06,53,2.50
2020,02,03,06,54,2.50
2020,02,03,06,55,2.50
2020,02,03,06,56,2.50
2020,02,03,06,57,2.50
2020,02,03,06,58,2.50
2020,02,03,06,59,2.50
2020,02,03,07,00,2.50
2020,02,03,07,01,2.50
2020,02,03,07,02,2.40
2020,02,03,07,03,2.40
2020,02,03,07,04,2.40
2020,02,03,07,05,2.40
2020,02,03,07,06,2.40
2020,02,03,07,07,2.40
2020,02,03,07,08,2.40
2020,02,03,07,09,2.40
2020,02,03,07,10,2.40
2020,02,03,07,11,2.40
2020,02,03,07,12,2.40
2020,02,03,07,13,2.40
2020,02,03,07,14,2.40
2020,02,03,07,15,2.40
2020,02,03,07,16,2.40
2020,02,03,07,17,2.40
2020,02,03,07,18,2.40
2020,02,03,07,19,2.40
2020,02,03,07,20,2.40
2020,02,03,07,21,2.40
2020,02,03,07,22,2.40
2020,02,03,07,23,2.40
2020,02,03,07,24,2.40
2020,02,03,07,25,2.40
2020,02,03,07,26,2.40
2020,02,03,07,27,2.40
2020,02,03,07,28,2.40
2020,02,03,07,29,2.40
2020,02,03,07,30,2.40
2020,02,03,07,31,2.40
2020,02,03,07,32,2.40
2020,02,03,07,33,2.40
2020,02,03,07,34,2.40
2020,02,03,07,35,2.40
2020,02,03,07,36,2.40
2020,02,03,07,37,2.40
2020,02,03,07,38,2.50
2020,02,03,07,39,2.50
2020,02,03,07,40,2.50
2020,02,03,07,41,2.50
2020,02,03,07,42,2.50
2020,02,03,07,43,2.50
2020,02,03,07,44,2.50
2020,02,03,07,45,2.50
2020,02,03,07,46,2.50
2020,02,03,07,47,2.50
2020,02,03,07,48,2.50
2020,02,03,07,49,2.50
2020,02,03,07,50,2.50
2020,02,03,07,51,2.50
2020,02,03,07,52,2.50
2020,02,03,07,53,2.50
2020,02,03,07,54,2.50
2020,02,03,07,55,2.50
2020,02,03,07,56,2.50
2020,02,03,07,57,2.50
2020,02,03,07,58,2.50
2020,02,03,07,59,2.50
2020,02,03,08,00,2.50
2020,02,03,08,01,2.50
2020,02,03,08,02,2.50
2020,02,03,08,03,2.50
2020,02,03,08,04,2.50
2020,02,03,08,05,2.50
2020,02,03,08,06,2.50
2020,02,03,08,07,2.50
2020,02,03,08,08,2.50
2020,02,03,08,09,2.50
2020,02,03,08,10,2.50
2020,02,03,08,11,2.50
2020,02,03,08,12,2.50
2020,02,03,08,13,2.50
2020,02,03,08,14,2.50
2020,02,03,08,15,2.50
2020,02,03,08,16,2.60
2020,02,03,08,17,2.60
2020,02,03,08,18,2.60
2020,02,03,08,19,2.60
2020,02,03,08,20,2.60
2020,02,03,08,21,2.60
2020,02,03,08,22,2.60
2020,02,03,08,23,2.60
2020,02,03,08,24,2.60
2020,02,03,08,25,2.60
2020,02,03,08,26,2.60
2020,02,03,08,27,2.60
2020,02,03,08,28,2.60
2020,02,03,08,29,2.60
2020,02,03,08,30,2.60
2020,02,03,08,31,2.60
2020,02,03,08,32,2.60
2020,02,03,08,33,2.60
2020,02,03,08,34,2.60
2020,02,03,08,35,2.60
2020,02,03,08,36,2.60
2020,02,03,08,37,2.70
2020,02,03,08,38,2.70
2020,02,03,08,39,2.70
2020,02,03,08,40,2.70
2020,02,03,08,41,2.60
2020,02,03,08,42,2.60
2020,02,03,08,43,2.70
2020,02,03,08,44,2.60
2020,02,03,08,45,2.70
2020,02,03,08,46,2.60
2020,02,03,08,47,2.60
2020,02,03,08,48,2.70
2020,02,03,08,49,2.60
2020,02,03,08,50,2.60
2020,02,03,08,51,2.60
2020,02,03,08,52,2.60
2020,02,03,08,53,2.70
2020,02,03,08,54,2.70
2020,02,03,08,55,2.70
2020,02,03,08,56,2.70
2020,02,03,08,57,2.70
2020,02,03,08,58,2.70
2020,02,03,08,59,2.70
2020,02,03,09,00,2.70
2020,02,03,09,01,2.70
2020,02,03,09,02,2.70
2020,02,03,09,03,2.70
2020,02,03,09,04,2.70
2020,02,03,09,05,2.70
2020,02,03,09,06,2.70
2020,02,03,09,07,2.80
2020,02,03,09,08,2.70
2020,02,03,09,09,2.80
2020,02,03,09,10,2.80
2020,02,03,09,11,2.80
2020,02,03,09,12,2.80
2020,02,03,09,13,2.80
2020,02,03,09,14,2.80
2020,02,03,09,15,2.80
2020,02,03,09,16,2.80
2020,02,03,09,17,2.80
2020,02,03,09,18,2.80
2020,02,03,09,19,2.80
2020,02,03,09,20,2.80
2020,02,03,09,21,2.80
2020,02,03,09,22,2.90
2020,02,03,09,23,2.90
2020,02,03,09,24,2.90
2020,02,03,09,25,2.90
2020,02,03,09,26,2.90
2020,02,03,09,27,2.90
2020,02,03,09,28,2.90
2020,02,03,09,29,2.90
2020,02,03,09,30,2.90
2020,02,03,09,31,2.90
2020,02,03,09,32,2.90
2020,02,03,09,33,2.90
2020,02,03,09,34,2.90
2020,02,03,09,35,2.90
2020,02,03,09,36,2.90
2020,02,03,09,37,3.00
2020,02,03,09,38,3.00
2020,02,03,09,39,3.00
2020,02,03,09,40,3.00
2020,02,03,09,41,3.00
2020,02,03,09,42,3.00
2020,02,03,09,43,3.10
2020,02,03,09,44,3.10
2020,02,03,09,45,3.10
2020,02,03,09,46,3.10
2020,02,03,09,47,3.10
2020,02,03,09,48,3.10
2020,02,03,09,49,3.20
2020,02,03,09,50,3.20
2020,02,03,09,51,3.20
2020,02,03,09,52,3.20
2020,02,03,09,53,3.20
2020,02,03,09,54,3.20
2020,02,03,09,55,3.20
2020,02,03,09,56,3.20
2020,02,03,09,57,3.20
2020,02,03,09,58,3.30
2020,02,03,09,59,3.30
2020,02,03,10,00,3.30
2020,02,03,10,01,3.30
2020,02,03,10,02,3.30
2020,02,03,10,03,3.30
2020,02,03,10,04,3.30
2020,02,03,10,05,3.30
2020,02,03,10,06,3.30
2020,02,03,10,07,3.30
2020,02,03,10,08,3.30
2020,02,03,10,09,3.30
2020,02,03,10,10,3.30
2020,02,03,10,11,3.30
2020,02,03,10,12,3.30
2020,02,03,10,13,3.30
2020,02,03,10,14,3.40
2020,02,03,10,15,3.40
2020,02,03,10,16,3.40
2020,02,03,10,17,3.40
2020,02,03,10,18,3.40
2020,02,03,10,19,3.40
2020,02,03,10,20,3.40
2020,02,03,10,21,3.40
2020,02,03,10,22,3.40
2020,02,03,10,23,3.50
2020,02,03,10,24,3.50
2020,02,03,10,25,3.50
2020,02,03,10,26,3.60
2020,02,03,10,27,3.60
2020,02,03,10,28,3.60
2020,02,03,10,29,3.70
2020,02,03,10,30,3.70
2020,02,03,10,31,3.80
2020,02,03,10,32,3.80
2020,02,03,10,33,3.80
2020,02,03,10,34,3.80
2020,02,03,10,35,3.80
2020,02,03,10,36,3.80
2020,02,03,10,37,3.90
2020,02,03,10,38,3.90
2020,02,03,10,39,3.90
2020,02,03,10,40,4.00
2020,02,03,10,41,4.00
2020,02,03,10,42,4.00
2020,02,03,11,03,4.10
2020,02,03,11,04,4.10
2020,02,03,11,05,4.10
2020,02,03,11,06,4.10
2020,02,03,11,07,4.10
2020,02,03,11,08,4.10
2020,02,03,11,09,4.10
2020,02,03,11,10,4.10
2020,02,03,11,11,4.10
2020,02,03,11,12,3.00
2020,02,03,11,14,4.10
2020,02,03,11,15,4.10
2020,02,03,11,16,4.10
2020,02,03,11,20,4.10
2020,02,03,11,21,4.10
2020,02,03,11,22,4.20
2020,02,03,12,42,-1.00
2020,02,03,12,43,4.40
2020,02,03,13,53,4.60
2020,02,03,13,54,4.60
2020,02,03,13,55,4.40
2020,02,03,13,56,4.40
2020,02,03,13,57,4.40
2020,02,03,13,58,4.40
2020,02,03,13,59,4.40
2020,02,03,14,00,4.40
2020,02,03,14,01,3.30
2020,02,03,14,03,4.30
2020,02,03,14,04,4.30
2020,02,03,14,05,4.30
2020,02,03,14,06,4.30
2020,02,03,14,07,4.30
2020,02,03,14,08,4.30
2020,02,03,14,09,4.30
2020,02,03,14,10,4.30
2020,02,03,14,11,4.40
2020,02,03,14,12,4.40
2020,02,03,14,13,4.40
2020,02,03,14,14,4.40
2020,02,03,14,15,4.40
2020,02,03,14,16,4.40
2020,02,03,14,17,4.40
2020,02,03,14,18,4.40
2020,02,03,14,19,4.40
2020,02,03,14,20,4.40
2020,02,03,14,21,4.40
2020,02,03,14,22,4.40
2020,02,03,14,23,4.40
2020,02,03,14,25,4.40
2020,02,03,14,26,4.40
2020,02,03,14,27,4.40
2020,02,03,14,28,4.40
2020,02,03,14,29,4.40
2020,02,03,14,30,4.40
2020,02,03,14,31,4.40
2020,02,03,14,32,4.40
2020,02,03,14,33,4.40
2020,02,03,14,34,4.40
2020,02,03,14,35,4.40
2020,02,03,14,36,4.40
2020,02,03,15,07,4.80
2020,02,03,15,12,4.50
2020,02,03,15,13,4.50
2020,02,03,15,14,4.40
2020,02,03,15,15,4.40
2020,02,03,15,19,4.50
2020,02,03,15,30,2.30
2020,02,03,15,37,4.70
2020,02,03,15,38,-0.80
2020,02,03,15,48,1.40
2020,02,03,15,54,4.70
2020,02,03,15,55,4.70
2020,02,03,15,56,4.70
2020,02,03,15,58,4.60
2020,02,03,15,59,4.60
2020,02,03,16,00,4.60
2020,02,03,16,01,4.60
2020,02,03,16,02,4.50
2020,02,03,16,03,4.50
2020,02,03,16,04,4.50
2020,02,03,16,05,4.40
2020,02,03,16,06,4.40
2020,02,03,16,07,4.40
2020,02,03,16,08,4.30
2020,02,03,16,09,4.20
2020,02,03,16,10,4.20
2020,02,03,16,11,4.10
2020,02,03,16,12,4.10
2020,02,03,16,13,4.00
2020,02,03,16,14,4.00
2020,02,03,16,15,3.90
2020,02,03,16,16,3.90
2020,02,03,16,17,3.80
2020,02,03,16,18,3.80
2020,02,03,16,19,3.70
2020,02,03,16,20,3.70
2020,02,03,16,21,3.60
2020,02,03,16,22,3.60
2020,02,03,16,23,3.60
2020,02,03,16,24,3.50
2020,02,03,16,25,3.50
2020,02,03,16,26,3.40
2020,02,03,16,27,3.40
2020,02,03,16,28,3.30
2020,02,03,16,29,3.30
2020,02,03,16,30,3.30
2020,02,03,16,31,3.20
2020,02,03,16,32,3.20
2020,02,03,16,33,3.10
2020,02,03,16,34,3.10
2020,02,03,16,35,3.10
2020,02,03,16,36,3.10
2020,02,03,16,37,3.00
2020,02,03,16,38,3.00
2020,02,03,16,39,2.90
2020,02,03,16,40,2.90
2020,02,03,16,41,2.90
2020,02,03,16,42,2.80
2020,02,03,16,43,2.80
2020,02,03,16,44,2.70
2020,02,03,16,45,2.70
2020,02,03,16,46,2.70
2020,02,03,16,47,2.60
2020,02,03,16,48,2.60
2020,02,03,16,49,2.60
2020,02,03,16,50,2.50
2020,02,03,16,51,2.50
2020,02,03,16,52,2.40
2020,02,03,16,53,2.40
2020,02,03,16,54,2.40
2020,02,03,16,55,2.30
2020,02,03,16,56,2.30
2020,02,03,16,57,2.30
2020,02,03,16,58,2.30
2020,02,03,16,59,2.20
2020,02,03,17,00,2.20
2020,02,03,17,01,2.20
2020,02,03,17,02,2.10
2020,02,03,17,03,2.10
2020,02,03,17,04,2.10
2020,02,03,17,05,2.10
2020,02,03,17,06,2.10
2020,02,03,17,07,2.00
2020,02,03,17,08,2.00
2020,02,03,17,09,2.00
2020,02,03,17,10,1.90
2020,02,03,17,11,1.90
2020,02,03,17,12,1.90
2020,02,03,17,13,1.90
2020,02,03,17,14,1.80
2020,02,03,17,15,1.80
2020,02,03,17,16,1.80
2020,02,03,17,17,1.80
2020,02,03,17,18,1.80
2020,02,03,17,19,1.70
2020,02,03,17,20,1.70
2020,02,03,17,21,1.70
2020,02,03,17,22,1.70
2020,02,03,17,23,1.60
2020,02,03,17,24,1.60
2020,02,03,17,25,1.60
2020,02,03,17,26,1.50
2020,02,03,17,27,1.50
2020,02,03,17,28,1.40
2020,02,03,17,29,1.40
2020,02,03,17,30,1.40
2020,02,03,17,31,1.40
2020,02,03,17,32,1.30
2020,02,03,17,33,1.30
2020,02,03,17,34,1.30
2020,02,03,17,35,1.30
2020,02,03,17,36,1.20
2020,02,03,17,37,1.20
2020,02,03,17,38,1.20
2020,02,03,17,39,1.20
2020,02,03,17,40,1.10
2020,02,03,17,41,1.10
2020,02,03,17,42,1.10
2020,02,03,17,43,1.10
2020,02,03,17,44,1.00
2020,02,03,17,45,1.00
2020,02,03,17,46,1.00
2020,02,03,17,47,0.90
2020,02,03,17,48,0.90
2020,02,03,17,49,0.90
2020,02,03,17,50,0.90
2020,02,03,17,51,0.80
2020,02,03,17,52,0.80
2020,02,03,17,53,0.80
2020,02,03,17,54,0.80
2020,02,03,17,55,0.70
2020,02,03,17,56,0.70
2020,02,03,17,57,0.70
2020,02,03,17,58,0.60
2020,02,03,17,59,0.60
2020,02,03,18,00,0.60
2020,02,03,18,01,0.60
2020,02,03,18,02,0.50
2020,02,03,18,03,0.50
2020,02,03,18,04,0.50
2020,02,03,18,05,0.40
2020,02,03,18,06,0.40
2020,02,03,18,07,0.40
2020,02,03,18,08,0.40
2020,02,03,18,09,0.30
2020,02,03,18,10,0.30
2020,02,03,18,11,0.30
2020,02,03,18,12,0.30
2020,02,03,18,13,0.30
2020,02,03,18,14,0.20
2020,02,03,18,15,0.20
2020,02,03,18,16,0.20
2020,02,03,18,17,0.20
2020,02,03,18,18,0.20
2020,02,03,18,19,0.10
2020,02,03,18,20,0.10
2020,02,03,18,21,0.10
2020,02,03,18,22,0.10
2020,02,03,18,23,0.10
2020,02,03,18,24,0.10
2020,02,03,18,25,0.00
2020,02,03,18,26,0.00
2020,02,03,18,27,0.00
2020,02,03,18,28,0.00
2020,02,03,18,29,0.00
2020,02,03,18,30,-0.10
2020,02,03,18,31,-0.10
2020,02,03,18,32,-0.10
2020,02,03,18,33,-0.10
2020,02,03,18,34,-0.10
2020,02,03,18,35,-0.20
2020,02,03,18,36,-0.20
2020,02,03,18,37,-0.20
2020,02,03,18,38,-0.20
2020,02,03,18,39,-0.20
2020,02,03,18,40,-0.20
2020,02,03,18,41,-0.30
2020,02,03,18,42,-0.30
2020,02,03,18,43,-0.30
2020,02,03,18,44,-0.30
2020,02,03,18,45,-0.30
2020,02,03,18,46,-0.30
2020,02,03,18,47,-0.30
2020,02,03,18,48,-0.40
2020,02,03,18,49,-0.40
2020,02,03,18,50,-0.40
2020,02,03,18,51,-0.40
2020,02,03,18,52,-0.40
2020,02,03,18,53,-0.40
2020,02,03,18,54,-0.50
2020,02,03,18,55,-0.50
2020,02,03,18,56,-0.50
2020,02,03,18,57,-0.50
2020,02,03,18,58,-0.50
2020,02,03,18,59,-0.60
2020,02,03,19,00,-0.60
2020,02,03,19,01,-0.60
2020,02,03,19,02,-0.60
2020,02,03,19,03,-0.60
2020,02,03,19,04,-0.60
2020,02,03,19,05,-0.60
2020,02,03,19,06,-0.60
2020,02,03,19,07,-0.70
2020,02,03,19,08,-0.70
2020,02,03,19,09,-0.70
2020,02,03,19,10,-0.70
2020,02,03,19,11,-0.70
2020,02,03,19,12,-0.70
2020,02,03,19,13,-0.70
2020,02,03,19,14,-0.70
2020,02,03,19,15,-0.80
2020,02,03,19,16,-0.80
2020,02,03,19,17,-0.80
2020,02,03,19,18,-0.80
2020,02,03,19,19,-0.80
2020,02,03,19,20,-0.80
2020,02,03,19,21,-0.80
2020,02,03,19,22,-0.80
2020,02,03,19,23,-0.80
2020,02,03,19,24,-0.80
2020,02,03,19,25,-0.80
2020,02,03,19,26,-0.90
2020,02,03,19,27,-0.80
2020,02,03,19,28,-0.80
2020,02,03,19,29,-0.80
2020,02,03,19,30,-0.80
2020,02,03,19,31,-0.80
2020,02,03,19,32,-0.80
2020,02,03,19,33,-0.90
2020,02,03,19,34,-0.90
2020,02,03,19,35,-0.90
2020,02,03,19,36,-0.90
2020,02,03,19,37,-0.90
2020,02,03,19,38,-0.90
2020,02,03,19,39,-0.90
2020,02,03,19,40,-0.90
2020,02,03,19,41,-0.90
2020,02,03,19,42,-0.90
2020,02,03,19,43,-0.90
2020,02,03,19,44,-0.90
2020,02,03,19,45,-0.90
2020,02,03,19,46,-0.90
2020,02,03,19,47,-0.90
2020,02,03,19,48,-0.90
2020,02,03,19,49,-0.90
2020,02,03,19,50,-0.90
2020,02,03,19,51,-0.90
2020,02,03,19,52,-0.90
2020,02,03,19,53,-0.90
2020,02,03,19,54,-0.90
2020,02,03,19,55,-0.90
2020,02,03,19,56,-0.90
2020,02,03,19,57,-0.90
2020,02,03,19,58,-0.90
2020,02,03,19,59,-0.90
2020,02,03,20,00,-0.90
2020,02,03,20,01,-0.90
2020,02,03,20,02,-0.90
2020,02,03,20,03,-0.90
2020,02,03,20,04,-0.90
2020,02,03,20,05,-0.90
2020,02,03,20,06,-0.90
2020,02,03,20,07,-0.90
2020,02,03,20,08,-0.90
2020,02,03,20,09,-0.90
2020,02,03,20,10,-0.90
2020,02,03,20,11,-0.90
2020,02,03,20,12,-0.90
2020,02,03,20,13,-0.90
2020,02,03,20,14,-0.90
2020,02,03,20,15,-0.90
2020,02,03,20,16,-0.90
2020,02,03,20,17,-0.90
2020,02,03,20,18,-0.90
2020,02,03,20,19,-0.90
2020,02,03,20,20,-0.90
2020,02,03,20,21,-0.90
2020,02,03,20,22,-0.90
2020,02,03,20,23,-0.90
2020,02,03,20,24,-0.90
2020,02,03,20,25,-0.90
2020,02,03,20,26,-0.90
2020,02,03,20,27,-0.90
2020,02,03,20,28,-0.90
2020,02,03,20,29,-0.80
2020,02,03,20,30,-0.80
2020,02,03,20,31,-0.80
2020,02,03,20,32,-0.80
2020,02,03,20,33,-0.80
2020,02,03,20,34,-0.80
2020,02,03,20,35,-0.80
2020,02,03,20,36,-0.80
2020,02,03,20,37,-0.80
2020,02,03,20,38,-0.80
2020,02,03,20,39,-0.80
2020,02,03,20,40,-0.80
2020,02,03,20,41,-0.80
2020,02,03,20,42,-0.80
2020,02,03,20,43,-0.80
2020,02,03,20,44,-0.80
2020,02,03,20,45,-0.80
2020,02,03,20,46,-0.80
2020,02,03,20,47,-0.80
2020,02,03,20,48,-0.80
2020,02,03,20,49,-0.70
2020,02,03,20,50,-0.70
2020,02,03,20,51,-0.70
2020,02,03,20,52,-0.70
2020,02,03,20,53,-0.70
2020,02,03,20,54,-0.70
2020,02,03,20,55,-0.70
2020,02,03,20,56,-0.70
2020,02,03,20,57,-0.70
2020,02,03,20,58,-0.70
2020,02,03,20,59,-0.70
2020,02,03,21,00,-0.70
2020,02,03,21,01,-0.70
2020,02,03,21,02,-0.70
2020,02,03,21,03,-0.70
2020,02,03,21,04,-0.70
2020,02,03,21,05,-0.70
2020,02,03,21,06,-0.70
2020,02,03,21,07,-0.70
2020,02,03,21,08,-0.70
2020,02,03,21,09,-0.70
2020,02,03,21,10,-0.70
2020,02,03,21,11,-0.70
2020,02,03,21,12,-0.70
2020,02,03,21,13,-0.70
2020,02,03,21,14,-0.70
2020,02,03,21,15,-0.70
2020,02,03,21,16,-0.70
2020,02,03,21,17,-0.70
2020,02,03,21,18,-0.70
2020,02,03,21,19,-0.70
2020,02,03,21,20,-0.70
2020,02,03,21,21,-0.70
2020,02,03,21,22,-0.70
2020,02,03,21,23,-0.70
2020,02,03,21,24,-0.70
2020,02,03,21,25,-0.80
2020,02,03,21,26,-0.80
2020,02,03,21,27,-0.80
2020,02,03,21,28,-0.80
2020,02,03,21,29,-0.80
2020,02,03,21,30,-0.80
2020,02,03,21,31,-0.80
2020,02,03,21,32,-0.80
2020,02,03,21,33,-0.80
2020,02,03,21,34,-0.80
2020,02,03,21,35,-0.80
2020,02,03,21,36,-0.80
2020,02,03,21,37,-0.80
2020,02,03,21,38,-0.80
2020,02,03,21,39,-0.80
2020,02,03,21,40,-0.80
2020,02,03,21,41,-0.90
2020,02,03,21,42,-0.80
2020,02,03,21,43,-0.90
2020,02,03,21,44,-0.90
2020,02,03,21,45,-0.90
2020,02,03,21,46,-0.90
2020,02,03,21,47,-0.90
2020,02,03,21,48,-0.90
2020,02,03,21,49,-0.90
2020,02,03,21,50,-0.90
2020,02,03,21,51,-1.00
2020,02,03,21,52,-1.00
2020,02,03,21,53,-1.00
2020,02,03,21,54,-1.00
2020,02,03,21,55,-1.00
